Weather History for St. Francis, KS

Change the Weather History Date:

Saturday, June 8, 2013

  Actual Average Record
Temperature  
Mean Temperature 70 °F -  
Max Temperature 82 °F 82 °F 82 °F (2013)
Min Temperature 55 °F 53 °F 51 °F (2014)
Cooling Degree Days 4    
Growing Degree Days 20 (Base 50)    
Moisture  
Dew Point 50 °F    
Average Humidity 53    
Maximum Humidity 80    
Minimum Humidity 17    
Precipitation  
Precipitation 0.00 in - - ()
Sea Level Pressure  
Sea Level Pressure 29.81 in    
Wind  
Wind Speed 12 mph (NNE)    
Max Wind Speed 32 mph    
Max Gust Speed 40 mph    
Visibility 10 miles    
Events Rain    
Averages and records for this station are not official NWS values.
T = Trace of Precipitation, MM = Missing Value Source: NWS Daily Summary

Daily Weather History Graph

Daily Weather History Graph

Search for Another Location

Airport:

Trip Planner

Search our weather history database for the weather conditions in past years. The results will help you decide how hot, cold, wet, or windy it might be!

Date:

Astronomy

Jun. 08, 2013 Rise Set
Actual Time 6:19 AM CDT 9:13 PM CDT
Civil Twilight 5:46 AM CDT 9:46 PM CDT
Nautical Twilight 5:05 AM CDT 10:27 PM CDT
Astronomical Twilight 4:18 AM CDT 11:14 PM CDT
Moon 6:28 AM CDT (6/8) 9:18 PM CDT (6/8)
Length of Visible Light 15h 59m
Length of Day
14h 54m
New Moon, 0% of the Moon is Illuminated
Jun 8
New Moon
Jun 16
First Quarter
Jun 23
Full
Jun 29
Last Quarter
Jul 8
New

Hourly Weather History & Observations

Time (CDT) Temp. Dew Point Humidity Pressure Visibility Wind Dir Wind Speed Gust Speed Precip Events Conditions
12:15 AM 63.0 °F 55.4 °F 76% 29.82 in 10.0 mi SE 10.4 mph - N/A   Clear
12:35 AM 63.5 °F 55.6 °F 75% 29.82 in 10.0 mi SE 10.4 mph - N/A   Clear
12:55 AM 63.5 °F 56.3 °F 77% 29.82 in 10.0 mi SSE 11.5 mph - N/A   Clear
1:15 AM 64.0 °F 57.2 °F 78% 29.82 in 10.0 mi SSE 8.1 mph - N/A   Clear
1:35 AM 63.9 °F 57.6 °F 80% 29.82 in 10.0 mi South 4.6 mph - N/A   Clear
1:55 AM 65.1 °F 57.6 °F 76% 29.80 in 10.0 mi South 9.2 mph - N/A   Clear
2:15 AM 66.0 °F 56.5 °F 71% 29.79 in 10.0 mi SSW 11.5 mph 17.3 mph N/A   Clear
2:35 AM 65.7 °F 56.1 °F 71% 29.78 in 10.0 mi SSW 10.4 mph - N/A   Clear
2:55 AM 64.9 °F 56.3 °F 74% 29.77 in 10.0 mi SSW 10.4 mph - N/A   Clear
3:15 AM 65.5 °F 55.4 °F 70% 29.76 in 10.0 mi SSW 13.8 mph - N/A   Clear
3:35 AM 65.7 °F 54.7 °F 68% 29.76 in 10.0 mi SSW 12.7 mph - N/A   Clear
3:55 AM 65.8 °F 54.0 °F 65% 29.74 in 10.0 mi SW 11.5 mph - N/A   Clear
4:15 AM 66.2 °F 53.1 °F 63% 29.73 in 10.0 mi SW 13.8 mph - N/A   Clear
4:35 AM 66.2 °F 52.7 °F 62% 29.72 in 10.0 mi SW 11.5 mph - N/A   Clear
4:55 AM 66.0 °F 52.5 °F 62% 29.72 in 10.0 mi SW 9.2 mph - N/A   Clear
5:15 AM 65.7 °F 52.5 °F 62% 29.71 in 10.0 mi SSW 10.4 mph - N/A   Clear
5:35 AM 65.3 °F 52.3 °F 63% 29.71 in 10.0 mi SSE 4.6 mph - N/A   Scattered Clouds
5:55 AM 64.2 °F 52.9 °F 67% 29.71 in 10.0 mi ESE 3.5 mph - N/A   Mostly Cloudy
6:15 AM 63.3 °F 52.7 °F 68% 29.71 in 10.0 mi SE 6.9 mph - N/A   Scattered Clouds
6:35 AM 64.2 °F 52.7 °F 66% 29.71 in 10.0 mi SE 9.2 mph - N/A   Clear
6:55 AM 67.1 °F 50.7 °F 56% 29.70 in 10.0 mi SSE 10.4 mph 16.1 mph N/A   Clear
7:15 AM 65.7 °F 52.0 °F 61% 29.69 in 10.0 mi SE 13.8 mph - N/A   Clear
7:35 AM 64.8 °F 52.7 °F 65% 29.68 in 10.0 mi SSE 13.8 mph - N/A   Clear
7:55 AM 67.8 °F 52.3 °F 58% 29.68 in 10.0 mi SSE 12.7 mph - N/A   Clear
8:15 AM 70.2 °F 52.3 °F 53% 29.68 in 10.0 mi SSE 15.0 mph - N/A   Clear
8:35 AM 67.6 °F 53.8 °F 61% 29.68 in 10.0 mi SSE 12.7 mph - N/A   Clear
8:55 AM 67.1 °F 53.8 °F 62% 29.70 in - South 11.5 mph - N/A   Unknown
9:15 AM 68.0 °F 52.7 °F 58% 29.72 in 10.0 mi West 4.6 mph - N/A   Scattered Clouds
9:35 AM 68.5 °F 52.2 °F 56% 29.72 in 10.0 mi West 8.1 mph - N/A   Scattered Clouds
9:55 AM 70.0 °F 50.7 °F 50% 29.74 in 10.0 mi NW 13.8 mph 20.7 mph N/A   Clear
10:15 AM 69.8 °F 52.5 °F 54% 29.76 in 10.0 mi NW 17.3 mph 26.5 mph N/A   Clear
10:35 AM 72.0 °F 53.1 °F 51% 29.76 in 10.0 mi NNW 25.3 mph 29.9 mph N/A   Clear
10:55 AM 73.4 °F 53.6 °F 50% 29.77 in 10.0 mi NNW 32.2 mph 38.0 mph N/A   Scattered Clouds
11:15 AM 74.3 °F 52.7 °F 47% 29.78 in 10.0 mi North 28.8 mph 38.0 mph N/A   Scattered Clouds
11:35 AM 76.1 °F 51.6 °F 42% 29.79 in 10.0 mi North 26.5 mph 34.5 mph N/A   Clear
11:55 AM 77.0 °F 51.8 °F 41% 29.79 in 10.0 mi North 20.7 mph 31.1 mph N/A   Clear
12:15 PM 75.7 °F 50.0 °F 40% 29.80 in 10.0 mi North 27.6 mph 40.3 mph N/A   Clear
12:35 PM 70.5 °F 51.6 °F 51% 29.79 in 10.0 mi North 23.0 mph 33.4 mph N/A   Scattered Clouds
12:55 PM 70.7 °F 51.3 °F 50% 29.81 in 10.0 mi North 18.4 mph 26.5 mph N/A   Mostly Cloudy
1:15 PM 65.7 °F 55.0 °F 69% 29.83 in 10.0 mi North 16.1 mph - N/A Rain Light Rain
1:35 PM 65.3 °F 54.7 °F 68% 29.83 in 10.0 mi North 3.5 mph 18.4 mph N/A Rain Light Rain
1:55 PM 66.2 °F 55.0 °F 67% 29.83 in 10.0 mi NNE 5.8 mph - N/A   Overcast
2:15 PM 69.4 °F 53.4 °F 57% 29.83 in 10.0 mi North 12.7 mph 19.6 mph N/A   Scattered Clouds
2:35 PM 74.7 °F 49.5 °F 41% 29.83 in 10.0 mi NNW 17.3 mph 27.6 mph N/A   Scattered Clouds
2:55 PM 76.3 °F 48.4 °F 37% 29.83 in 10.0 mi NNW 16.1 mph 19.6 mph N/A   Scattered Clouds
3:15 PM 80.4 °F 46.9 °F 31% 29.83 in 10.0 mi North 12.7 mph 21.9 mph N/A   Scattered Clouds
3:35 PM 80.4 °F 45.1 °F 29% 29.83 in 10.0 mi North 13.8 mph 25.3 mph N/A   Scattered Clouds
3:55 PM 81.3 °F 44.1 °F 27% 29.83 in 10.0 mi North 16.1 mph 20.7 mph N/A   Scattered Clouds
4:15 PM 79.9 °F 45.0 °F 29% 29.83 in 10.0 mi NNE 16.1 mph 24.2 mph N/A   Clear
4:35 PM 81.5 °F 43.9 °F 26% 29.83 in 10.0 mi North 10.4 mph 19.6 mph N/A   Clear
4:55 PM 82.2 °F 44.8 °F 27% 29.83 in 10.0 mi North 15.0 mph 19.6 mph N/A   Clear
5:15 PM 82.2 °F 45.1 °F 27% 29.83 in 10.0 mi North 16.1 mph 19.6 mph N/A   Scattered Clouds
5:35 PM 79.3 °F 45.0 °F 30% 29.83 in 10.0 mi North 8.1 mph 18.4 mph N/A   Clear
5:55 PM 80.2 °F 44.8 °F 29% 29.83 in 10.0 mi North 12.7 mph - N/A   Scattered Clouds
6:15 PM 79.9 °F 45.7 °F 30% 29.83 in 10.0 mi NNE 8.1 mph - N/A   Scattered Clouds
6:35 PM 81.0 °F 44.1 °F 27% 29.83 in 10.0 mi NNE 10.4 mph - N/A   Scattered Clouds
6:55 PM 80.8 °F 32.5 °F 17% 29.83 in 10.0 mi North 19.6 mph 33.4 mph N/A   Mostly Cloudy
7:15 PM 79.0 °F 32.0 °F 18% 29.85 in 10.0 mi NNW 21.9 mph 31.1 mph N/A   Scattered Clouds
7:35 PM 77.9 °F 42.8 °F 29% 29.86 in 10.0 mi North 19.6 mph 28.8 mph N/A   Clear
7:55 PM 74.8 °F 46.8 °F 37% 29.88 in 10.0 mi North 19.6 mph 29.9 mph N/A   Clear
8:15 PM 73.0 °F 45.5 °F 37% 29.89 in 10.0 mi NNE 16.1 mph - N/A   Clear
8:35 PM 70.9 °F 45.9 °F 41% 29.92 in 10.0 mi NNE 9.2 mph - N/A   Scattered Clouds
8:55 PM 70.9 °F 45.9 °F 41% 29.93 in 10.0 mi NNE 8.1 mph - N/A   Scattered Clouds
9:15 PM 67.1 °F 45.1 °F 45% 29.94 in 10.0 mi NNE 8.1 mph - N/A   Scattered Clouds
9:35 PM 64.4 °F 43.9 °F 47% 29.94 in 10.0 mi NNE 4.6 mph - N/A   Clear
9:55 PM 63.7 °F 44.1 °F 49% 29.96 in 10.0 mi Calm Calm - N/A   Clear
10:15 PM 62.2 °F 44.2 °F 52% 29.96 in 10.0 mi ENE 4.6 mph - N/A   Clear
10:35 PM 60.1 °F 45.7 °F 59% 29.97 in 10.0 mi East 3.5 mph - N/A   Clear
10:55 PM 59.9 °F 46.2 °F 61% 29.96 in 10.0 mi East 3.5 mph - N/A   Clear
11:15 PM 59.5 °F 46.4 °F 62% 29.97 in 10.0 mi Calm Calm - N/A   Clear
11:35 PM 57.2 °F 46.4 °F 67% 29.98 in 10.0 mi SW 8.1 mph - N/A   Clear
11:55 PM 55.9 °F 47.1 °F 72% 29.98 in 10.0 mi Calm Calm - N/A   Clear